User: anonymous   Login
Location: Unspecified
(0.0000°N, 0.0000°E)
Time: 08:26:52
(UTC+00:00)
Language:

Orbcomm G2 (FM04) - Orbit

View from above orbital plane
View from above orbital plane
View from above satellite
View from above satellite

Ground track
Ground track

The orbit data is extracted from the following two-line orbital elements,

1 25159U 98007C   19345.91935940  .00000085  00000-0  83647-4 0  9993
2 25159 108.0029 339.7047 0042837 148.4819 211.8896 14.29732572136160
Epoch (UTC): 11 December 2019 22:03:52
Eccentricity: 0.0042837
inclination: 108.0029°
perigee height: 762 km
apogee height: 823 km
right ascension of ascending node: 339.7047°
argument of perigee: 148.4819°
revolutions per day: 14.29732572
mean anomaly at epoch: 211.8896°
orbit number at epoch: 13616

The dashed part of the orbit path shows where the satellite is in the earth's shadow,  

DLR